Simultaneous Nadir Overpasses (SNOs) Predictions

Prediction of SNOs between METOP-B and NOAA-19 Satellite Orbit:

Table of predicted SNOs for the next 14.0 days since TLE Epoch: 2/3/2024
Index Date (METOP-B) Time (METOP-B) Lat,Lon (METOP-B) SZA (METOP-B ) Date (NOAA-19) Time (NOAA-19) Lat,Lon (NOAA-19) SZA (NOAA-19 ) Distance(km) Time Diff (sec)
1 02/11/2024 03:24:27 80.10, 150.41 94.73 02/11/2024 03:23:27 80.10, 150.44 94.72 0.57 60
2 02/11/2024 04:15:08 -80.12, -42.10 85.27 02/11/2024 04:14:27 -80.13, -41.96 85.25 3.09 41
3 02/11/2024 05:05:47 80.15, 125.58 94.78 02/11/2024 05:05:23 80.16, 125.71 94.79 2.60 24
4 02/11/2024 05:56:27 -80.19, -66.62 85.17 02/11/2024 05:56:23 -80.19, -66.69 85.18 1.54 4
5 02/11/2024 06:47:07 80.20, 100.76 94.83 02/11/2024 06:47:20 80.19, 100.67 94.82 1.94 13
6 02/11/2024 07:37:48 -80.21, -91.74 85.16 02/11/2024 07:38:20 -80.22, -91.73 85.15 0.56 32
7 02/11/2024 08:28:27 80.25, 75.95 94.88 02/11/2024 08:29:16 80.25, 75.95 94.89 0.11 49



Historial Predications of SNOs between METOP-B and NOAA-19
